Regional Weather Roundup
Issued by NWS Newport/Morehead, NC

Current Version | Previous Version | Graphics & Text | Print | Product List | Glossary Off
Versions: 1 2 3 4 5 6 7 8 9 10 11 12 13 14 15 16 17 18 19 20 21 22 23 24 25 26 27 28 29 30 31 32 33 34 35 36 37 38 39 40 41 42 43 44 45 46 47 48 49 50

000
ASUS42 KMHX 231813
RWRMHX
WEATHER ROUNDUP FOR EASTERN NORTH CAROLINA
NATIONAL WEATHER SERVICE NEWPORT/MOREHEAD CITY NC
200 PM EDT WED MAY 23 2018

NOTE: "FAIR" INDICATES FEW OR NO CLOUDS BELOW 12,000 FEET
WITH NO SIGNIFICANT WEATHER AND/OR OBSTRUCTIONS TO VISIBILITY

NCZ015>017-031-032-045>047-102-103-231900-
NORTH COAST

CITY           SKY/WX    TMP DP  RH WIND       PRES   REMARKS
EDENTON        FAIR      84  73  67 SW10      30.02S
ELIZABETH CITY FAIR      85  75  72 SW15      29.99F
KITTY HAWK     FAIR      82  70  67 W9        29.99F
MANTEO         FAIR      83  71  67 W13       30.01S

$$

NCZ045>047-081-094-103-104-231900-
CENTRAL COAST

CITY           SKY/WX    TMP DP  RH WIND       PRES   REMARKS
FRISCO         FAIR      80  73  79 SW13G22   30.05F

$$

NCZ095-097-098-100-101-231900-
SOUTHERN COAST

CITY           SKY/WX    TMP DP  RH WIND       PRES   REMARKS
BEAUFORT       FAIR      80  74  81 S21       30.06F
CEDAR ISLAND   NOT AVBL
JACKSONVILLE   FAIR      87  71  58 W9        30.04F
PINEY ISLAND   NOT AVBL
WILMINGTON     FAIR      87  69  54 SW14G23   30.05F


$$

NCZ011>013-027>030-043-044-078>080-089-090>093-098-231900-
COASTAL PLAIN

CITY           SKY/WX    TMP DP  RH WIND       PRES   REMARKS
AHOSKIE        CLOUDY    81  72  73 CALM      30.01S
CLINTON        FAIR      85  71  62 SW8       30.05S
ELIZABETHTOWN  PTSUNNY   85  69  58 SW12      30.06S
GOLDSBORO      PTSUNNY   85  70  61 SW8       30.01F
GREENVILLE     FAIR      86  72  62 W7G16     30.04F
HAVELOCK       PTSUNNY   85  74  69 SW12      30.04F
KENANSVILLE    CLOUDY    84  70  61 SW8       30.04F
KINSTON        MOSUNNY   86  68  54 SW8       30.04F
NEW BERN       FAIR      84  71  65 W10       30.04F
RICHLANDS      PTSUNNY   88  72  58 W8        30.05F
ROCKY MOUNT    FAIR      85  72  65 SW10      30.02F
WASHINGTON     FAIR      86  71  61 CALM      30.03F
WHITEVILLE     FAIR      84  69  59 SW13      30.06F

$$

AMZ130-135-150-152-154-156-158-170-250-252-270-ANZ085-086-088-633-658-670-231900-
MARINE OBSERVATIONS

STATION/POSITION TIME  TEMP    WIND        PRES    WAVE   SWELL
                       AIR SEA DIR/SP/G            HT/PER HT/PER
                 (UTC) (F)     (DEG/KT/KT) (MB)    (FT/S) (FT/S)
CHESAPEAKE LIGHT NOT AVBL
64 E VA BEACH    1750   71 69  230/ 10/ 12 1016.1    3/ 7   2/ 7
DUCK             1748   79 63  250/ 14/ 20 1015.7
2 E DUCK         1800      66                N/A     2/ 9
OREGON INLET     1742   79 76  210/ 14/ 17 1016.1
13E OREGON INLT  1748      66                N/A     3/ 5   2/ 8
HATTERAS CG      1748   77 75  220/ 13/ 17 1017.2
DIAMOND BUOY     1800   76 74  230/ 16/ 19 1017.9
CAPE LOOKOUT     1800          220/ 16/ 21 1018.2
BEAUFORT LAB     1748   78 77  210/ 12/ 20 1018.1
30 SE NEW RVR IN 1708   76     210/ 14/ 17 1018.9
30 SE NEW RVR IN 1800      76                N/A     4/ 8
27 SE WRIGHTSVLE 1708   75 75  220/ 16/ 21 1019.1
5 SE WRIGHTSVLE  1708   74 73  120/ 16/ 21 1017.7
225 S CAPE HAT   1800      78  210/  8/ 10 1021.0
41 SE CHARLESTON 1750      75  210/  8/ 10 1019.8    3/ 8   3/ 8

$$



USA.gov is the U.S. government's official web portal to all federal, state and local government web resources and services.